owner,sensor,date,latitude,longitude,vertical_datum,sea_water_practical_salinity,qcFlag 
DISL,ioos:station:DISL:DISL:1,2012-01-01T00:00:00Z,30.2513,-88.0778,0.3,16.8,11111222 
DISL,ioos:station:DISL:DISL:1,2012-01-01T00:30:00Z,30.2513,-88.0778,0.3,16.8,11111222 
DISL,ioos:station:DISL:DISL:1,2012-01-01T01:00:00Z,30.2513,-88.0778,0.3,17.1,11111222 
DISL,ioos:station:DISL:DISL:1,2012-01-01T01:30:00Z,30.2513,-88.0778,0.3,19.1,11111222 
DISL,ioos:station:DISL:DISL:1,2012-01-01T02:00:00Z,30.2513,-88.0778,0.3,17.1,11111222 
DISL,ioos:station:DISL:DISL:1,2012-01-01T02:30:00Z,30.2513,-88.0778,0.3,17.0,11111222 
DISL,ioos:station:DISL:DISL:1,2012-01-01T03:00:00Z,30.2513,-88.0778,0.3,17.9,11111222 
DISL,ioos:station:DISL:DISL:1,2012-01-01T03:30:00Z,30.2513,-88.0778,0.3,17.6,11111222 
DISL,ioos:station:DISL:DISL:1,2012-01-01T04:00:00Z,30.2513,-88.0778,0.3,18.0,11111222 
DISL,ioos:station:DISL:DISL:1,2012-01-01T04:30:00Z,30.2513,-88.0778,0.2,18.3,11111222 
DISL,ioos:station:DISL:DISL:1,2012-01-01T05:00:00Z,30.2513,-88.0778,0.2,18.3,11111222 
DISL,ioos:station:DISL:DISL:1,2012-01-01T05:30:00Z,30.2513,-88.0778,0.2,18.4,11111222 
DISL,ioos:station:DISL:DISL:1,2012-01-01T06:00:00Z,30.2513,-88.0778,0.2,18.7,11111222 
DISL,ioos:station:DISL:DISL:1,2012-01-01T06:30:00Z,30.2513,-88.0778,6.289,18.83,1111122 
DISL,ioos:station:DISL:DISL:1,2012-01-01T07:00:00Z,30.2513,-88.0778,6.26,18.74,1111122 
DISL,ioos:station:DISL:DISL:1,2012-01-01T07:30:00Z,30.2513,-88.0778,6.241,18.19,1111122 
DISL,ioos:station:DISL:DISL:1,2012-01-01T08:00:00Z,30.2513,-88.0778,6.202,17.96,1111122 
DISL,ioos:station:DISL:DISL:1,2012-01-01T08:30:00Z,30.2513,-88.0778,6.207,15.75,1111122 
DISL,ioos:station:DISL:DISL:1,2012-01-01T09:00:00Z,30.2513,-88.0778,6.17,15.21,1111122 
DISL,ioos:station:DISL:DISL:1,2012-01-01T09:30:00Z,30.2513,-88.0778,6.115,15.72,1111122 
DISL,ioos:station:DISL:DISL:1,2012-01-01T10:00:00Z,30.2513,-88.0778,6.07,15.19,1111122 
DISL,ioos:station:DISL:DISL:1,2012-01-01T10:30:00Z,30.2513,-88.0778,6.074,13.56,1111122 
DISL,ioos:station:DISL:DISL:1,2012-01-01T11:00:00Z,30.2513,-88.0778,6.071,13.01,1111122 
DISL,ioos:station:DISL:DISL:1,2012-01-01T11:30:00Z,30.2513,-88.0778,6.026,12.72,1111122 
DISL,ioos:station:DISL:DISL:1,2012-01-01T12:00:00Z,30.2513,-88.0778,6.008,13.04,1111122 
DISL,ioos:station:DISL:DISL:1,2012-01-01T12:30:00Z,30.2513,-88.0778,6.035,14.51,1111122 
DISL,ioos:station:DISL:DISL:1,2012-01-01T13:00:00Z,30.2513,-88.0778,6.026,14.35,1111122 
DISL,ioos:station:DISL:DISL:1,2012-01-01T13:30:00Z,30.2513,-88.0778,6.031,13.36,1111122 
DISL,ioos:station:DISL:DISL:1,2012-01-01T14:00:00Z,30.2513,-88.0778,5.982,16.24,1111122 
DISL,ioos:station:DISL:DISL:1,2012-01-01T14:30:00Z,30.2513,-88.0778,6.032,17.55,1111122 
DISL,ioos:station:DISL:DISL:1,2012-01-01T15:00:00Z,30.2513,-88.0778,5.95,17.68,1111122 
DISL,ioos:station:DISL:DISL:1,2012-01-01T15:30:00Z,30.2513,-88.0778,6.0,18.3,1111122 
DISL,ioos:station:DISL:DISL:1,2012-01-01T16:00:00Z,30.2513,-88.0778,6.066,18.16,1111122 
DISL,ioos:station:DISL:DISL:1,2012-01-01T16:30:00Z,30.2513,-88.0778,6.098,18.0,1111122 
DISL,ioos:station:DISL:DISL:1,2012-01-01T17:00:00Z,30.2513,-88.0778,6.094,18.9,1111122 
DISL,ioos:station:DISL:DISL:1,2012-01-01T17:30:00Z,30.2513,-88.0778,6.085,17.44,1111122 
DISL,ioos:station:DISL:DISL:1,2012-01-01T18:00:00Z,30.2513,-88.0778,6.184,19.8,1111122 
DISL,ioos:station:DISL:DISL:1,2012-01-01T18:30:00Z,30.2513,-88.0778,6.24,18.56,1111122 
DISL,ioos:station:DISL:DISL:1,2012-01-01T19:00:00Z,30.2513,-88.0778,6.26,19.85,1111122 
DISL,ioos:station:DISL:DISL:1,2012-01-01T19:30:00Z,30.2513,-88.0778,6.321,19.19,1111122 
DISL,ioos:station:DISL:DISL:1,2012-01-01T20:00:00Z,30.2513,-88.0778,6.345,20.12,1111122 
DISL,ioos:station:DISL:DISL:1,2012-01-01T20:30:00Z,30.2513,-88.0778,6.36,18.85,1111122 
DISL,ioos:station:DISL:DISL:1,2012-01-01T21:00:00Z,30.2513,-88.0778,6.407,19.45,1111122 
DISL,ioos:station:DISL:DISL:1,2012-01-01T21:30:00Z,30.2513,-88.0778,6.395,17.61,1111122 
DISL,ioos:station:DISL:DISL:1,2012-01-01T22:00:00Z,30.2513,-88.0778,6.368,17.72,1111122 
DISL,ioos:station:DISL:DISL:1,2012-01-01T22:30:00Z,30.2513,-88.0778,6.434,17.87,1111122 
DISL,ioos:station:DISL:DISL:1,2012-01-01T23:00:00Z,30.2513,-88.0778,6.444,17.68,1111122 
DISL,ioos:station:DISL:DISL:1,2012-01-01T23:30:00Z,30.2513,-88.0778,6.41,17.57,1111122 
DISL,ioos:station:DISL:DISL:1,2012-01-02T00:00:00Z,30.2513,-88.0778,6.476,17.64,1111122 
DISL,ioos:station:DISL:DISL:1,2012-01-02T00:30:00Z,30.2513,-88.0778,6.388,17.94,1111122 
DISL,ioos:station:DISL:DISL:1,2012-01-02T01:00:00Z,30.2513,-88.0778,6.301,18.0,1111122 
DISL,ioos:station:DISL:DISL:1,2012-01-02T01:30:00Z,30.2513,-88.0778,6.275,18.02,1111122 
DISL,ioos:station:DISL:DISL:1,2012-01-02T02:00:00Z,30.2513,-88.0778,6.226,18.08,1111122 
DISL,ioos:station:DISL:DISL:1,2012-01-02T02:30:00Z,30.2513,-88.0778,6.175,18.19,1111122 
DISL,ioos:station:DISL:DISL:1,2012-01-02T03:00:00Z,30.2513,-88.0778,6.099,18.15,1111122 
DISL,ioos:station:DISL:DISL:1,2012-01-02T03:30:00Z,30.2513,-88.0778,6.094,18.15,1111122 
DISL,ioos:station:DISL:DISL:1,2012-01-02T04:00:00Z,30.2513,-88.0778,6.06,19.16,1111122 
DISL,ioos:station:DISL:DISL:1,2012-01-02T04:30:00Z,30.2513,-88.0778,5.922,19.58,1111122 
DISL,ioos:station:DISL:DISL:1,2012-01-02T05:00:00Z,30.2513,-88.0778,5.773,19.99,1111122 
DISL,ioos:station:DISL:DISL:1,2012-01-02T05:30:00Z,30.2513,-88.0778,5.661,20.05,1111122 
DISL,ioos:station:DISL:DISL:1,2012-01-02T06:00:00Z,30.2513,-88.0778,5.551,20.2,1111122 
DISL,ioos:station:DISL:DISL:1,2012-01-02T06:30:00Z,30.2513,-88.0778,5.32,20.15,1111122 
DISL,ioos:station:DISL:DISL:1,2012-01-02T07:00:00Z,30.2513,-88.0778,5.38,20.02,1111122 
DISL,ioos:station:DISL:DISL:1,2012-01-02T07:30:00Z,30.2513,-88.0778,5.385,19.85,1111122 
DISL,ioos:station:DISL:DISL:1,2012-01-02T08:00:00Z,30.2513,-88.0778,5.46,19.24,1111122 
DISL,ioos:station:DISL:DISL:1,2012-01-02T08:30:00Z,30.2513,-88.0778,5.23,19.14,1111122 
DISL,ioos:station:DISL:DISL:1,2012-01-02T09:00:00Z,30.2513,-88.0778,5.181,19.51,1111122 
DISL,ioos:station:DISL:DISL:1,2012-01-02T09:30:00Z,30.2513,-88.0778,5.081,19.86,1111122 
DISL,ioos:station:DISL:DISL:1,2012-01-02T10:00:00Z,30.2513,-88.0778,5.064,19.91,1111122 
DISL,ioos:station:DISL:DISL:1,2012-01-02T10:30:00Z,30.2513,-88.0778,5.012,19.72,1111122 
DISL,ioos:station:DISL:DISL:1,2012-01-02T11:00:00Z,30.2513,-88.0778,5.014,19.73,1111122 
DISL,ioos:station:DISL:DISL:1,2012-01-02T11:30:00Z,30.2513,-88.0778,5.157,19.77,1111122 
DISL,ioos:station:DISL:DISL:1,2012-01-02T12:00:00Z,30.2513,-88.0778,5.248,19.79,1111122 
DISL,ioos:station:DISL:DISL:1,2012-01-02T12:30:00Z,30.2513,-88.0778,5.076,19.77,1111122 
DISL,ioos:station:DISL:DISL:1,2012-01-02T13:00:00Z,30.2513,-88.0778,5.201,19.84,1111122 
DISL,ioos:station:DISL:DISL:1,2012-01-02T13:30:00Z,30.2513,-88.0778,5.2,19.67,1111122 
DISL,ioos:station:DISL:DISL:1,2012-01-02T14:00:00Z,30.2513,-88.0778,5.255,19.57,1111122 
DISL,ioos:station:DISL:DISL:1,2012-01-02T14:30:00Z,30.2513,-88.0778,5.281,19.56,1111122 
DISL,ioos:station:DISL:DISL:1,2012-01-02T15:00:00Z,30.2513,-88.0778,5.066,19.68,1111122 
DISL,ioos:station:DISL:DISL:1,2012-01-02T15:30:00Z,30.2513,-88.0778,5.401,19.71,1111122 
DISL,ioos:station:DISL:DISL:1,2012-01-02T16:00:00Z,30.2513,-88.0778,5.401,19.73,1111122 
DISL,ioos:station:DISL:DISL:1,2012-01-02T16:30:00Z,30.2513,-88.0778,5.449,19.75,1111122 
DISL,ioos:station:DISL:DISL:1,2012-01-02T17:00:00Z,30.2513,-88.0778,5.517,19.56,1111122 
DISL,ioos:station:DISL:DISL:1,2012-01-02T17:30:00Z,30.2513,-88.0778,5.629,19.32,1111122 
DISL,ioos:station:DISL:DISL:1,2012-01-02T18:00:00Z,30.2513,-88.0778,5.669,19.09,1111122 
DISL,ioos:station:DISL:DISL:1,2012-01-02T18:30:00Z,30.2513,-88.0778,5.942,18.86,1111122 
DISL,ioos:station:DISL:DISL:1,2012-01-02T19:00:00Z,30.2513,-88.0778,5.792,18.87,1111122 
DISL,ioos:station:DISL:DISL:1,2012-01-02T19:30:00Z,30.2513,-88.0778,5.806,18.93,1111122 
DISL,ioos:station:DISL:DISL:1,2012-01-02T20:00:00Z,30.2513,-88.0778,5.849,19.14,1111122 
DISL,ioos:station:DISL:DISL:1,2012-01-02T20:30:00Z,30.2513,-88.0778,5.852,19.14,1111122 
DISL,ioos:station:DISL:DISL:1,2012-01-02T21:00:00Z,30.2513,-88.0778,5.897,19.19,1111122 
DISL,ioos:station:DISL:DISL:1,2012-01-02T21:30:00Z,30.2513,-88.0778,5.923,21.28,1111122 
DISL,ioos:station:DISL:DISL:1,2012-01-02T22:00:00Z,30.2513,-88.0778,5.911,21.65,1111122 
DISL,ioos:station:DISL:DISL:1,2012-01-02T22:30:00Z,30.2513,-88.0778,5.976,21.81,1111122 
DISL,ioos:station:DISL:DISL:1,2012-01-02T23:00:00Z,30.2513,-88.0778,5.96,22.51,1111122 
DISL,ioos:station:DISL:DISL:1,2012-01-02T23:30:00Z,30.2513,-88.0778,6.007,19.04,1111122 
DISL,ioos:station:DISL:DISL:1,2012-01-03T00:00:00Z,30.2513,-88.0778,6.052,18.96,1111122 
DISL,ioos:station:DISL:DISL:1,2012-01-03T00:30:00Z,30.2513,-88.0778,6.041,18.62,1111122 
DISL,ioos:station:DISL:DISL:1,2012-01-03T01:00:00Z,30.2513,-88.0778,6.063,19.95,1111122 
DISL,ioos:station:DISL:DISL:1,2012-01-03T01:30:00Z,30.2513,-88.0778,5.97,18.51,1111122 
DISL,ioos:station:DISL:DISL:1,2012-01-03T02:00:00Z,30.2513,-88.0778,5.893,18.49,1111122 
DISL,ioos:station:DISL:DISL:1,2012-01-03T02:30:00Z,30.2513,-88.0778,5.832,18.45,1111122 
DISL,ioos:station:DISL:DISL:1,2012-01-03T03:00:00Z,30.2513,-88.0778,5.853,18.36,1111122 
DISL,ioos:station:DISL:DISL:1,2012-01-03T03:30:00Z,30.2513,-88.0778,5.734,18.37,1111122 
DISL,ioos:station:DISL:DISL:1,2012-01-03T04:00:00Z,30.2513,-88.0778,5.675,18.4,1111122 
DISL,ioos:station:DISL:DISL:1,2012-01-03T04:30:00Z,30.2513,-88.0778,5.372,18.48,1111122 
DISL,ioos:station:DISL:DISL:1,2012-01-03T05:00:00Z,30.2513,-88.0778,5.446,18.41,1111122 
DISL,ioos:station:DISL:DISL:1,2012-01-03T05:30:00Z,30.2513,-88.0778,5.325,18.41,1111122 
DISL,ioos:station:DISL:DISL:1,2012-01-03T06:00:00Z,30.2513,-88.0778,5.243,18.44,1111122 
DISL,ioos:station:DISL:DISL:1,2012-01-03T06:30:00Z,30.2513,-88.0778,5.139,18.44,1111122 
DISL,ioos:station:DISL:DISL:1,2012-01-03T07:00:00Z,30.2513,-88.0778,5.038,18.41,1111122 
DISL,ioos:station:DISL:DISL:1,2012-01-03T07:30:00Z,30.2513,-88.0778,4.949,18.67,1111122 
DISL,ioos:station:DISL:DISL:1,2012-01-03T08:00:00Z,30.2513,-88.0778,4.94,18.81,1111122 
DISL,ioos:station:DISL:DISL:1,2012-01-03T08:30:00Z,30.2513,-88.0778,4.89,18.91,1111122 
DISL,ioos:station:DISL:DISL:1,2012-01-03T09:00:00Z,30.2513,-88.0778,4.85,19.01,1111122 
DISL,ioos:station:DISL:DISL:1,2012-01-03T09:30:00Z,30.2513,-88.0778,4.785,19.06,1111122 
DISL,ioos:station:DISL:DISL:1,2012-01-03T10:00:00Z,30.2513,-88.0778,4.702,19.05,1111122 
DISL,ioos:station:DISL:DISL:1,2012-01-03T10:30:00Z,30.2513,-88.0778,4.658,18.96,1111122 
DISL,ioos:station:DISL:DISL:1,2012-01-03T11:00:00Z,30.2513,-88.0778,4.576,18.92,1111122 
DISL,ioos:station:DISL:DISL:1,2012-01-03T11:30:00Z,30.2513,-88.0778,4.641,18.87,1111122 
DISL,ioos:station:DISL:DISL:1,2012-01-03T12:00:00Z,30.2513,-88.0778,4.594,18.86,1111122 
DISL,ioos:station:DISL:DISL:1,2012-01-03T12:30:00Z,30.2513,-88.0778,4.514,19.02,1111122 
DISL,ioos:station:DISL:DISL:1,2012-01-03T13:00:00Z,30.2513,-88.0778,4.617,19.18,1111122 
DISL,ioos:station:DISL:DISL:1,2012-01-03T13:30:00Z,30.2513,-88.0778,4.717,19.28,1111122 
DISL,ioos:station:DISL:DISL:1,2012-01-03T14:00:00Z,30.2513,-88.0778,4.652,19.51,1111122 
DISL,ioos:station:DISL:DISL:1,2012-01-03T14:30:00Z,30.2513,-88.0778,4.66,19.6,1111122 
DISL,ioos:station:DISL:DISL:1,2012-01-03T15:00:00Z,30.2513,-88.0778,4.701,19.55,1111122 
DISL,ioos:station:DISL:DISL:1,2012-01-03T15:30:00Z,30.2513,-88.0778,4.727,19.68,1111122 
DISL,ioos:station:DISL:DISL:1,2012-01-03T16:00:00Z,30.2513,-88.0778,4.763,19.31,1111122 
DISL,ioos:station:DISL:DISL:1,2012-01-03T16:30:00Z,30.2513,-88.0778,4.763,19.39,1111122 
DISL,ioos:station:DISL:DISL:1,2012-01-03T17:00:00Z,30.2513,-88.0778,4.884,19.38,1111122 
DISL,ioos:station:DISL:DISL:1,2012-01-03T17:30:00Z,30.2513,-88.0778,4.881,19.44,1111122 
DISL,ioos:station:DISL:DISL:1,2012-01-03T18:00:00Z,30.2513,-88.0778,4.921,19.29,1111122 
DISL,ioos:station:DISL:DISL:1,2012-01-03T18:30:00Z,30.2513,-88.0778,4.99,20.92,1111122 
DISL,ioos:station:DISL:DISL:1,2012-01-03T19:00:00Z,30.2513,-88.0778,5.104,20.27,1111122 
DISL,ioos:station:DISL:DISL:1,2012-01-03T19:30:00Z,30.2513,-88.0778,5.145,19.01,1111122 
DISL,ioos:station:DISL:DISL:1,2012-01-03T20:00:00Z,30.2513,-88.0778,5.264,18.83,1111122 
DISL,ioos:station:DISL:DISL:1,2012-01-03T20:30:00Z,30.2513,-88.0778,5.364,18.81,1111122 
DISL,ioos:station:DISL:DISL:1,2012-01-03T21:00:00Z,30.2513,-88.0778,5.466,18.78,1111122 
DISL,ioos:station:DISL:DISL:1,2012-01-03T21:30:00Z,30.2513,-88.0778,5.497,20.57,1111122 
DISL,ioos:station:DISL:DISL:1,2012-01-03T22:00:00Z,30.2513,-88.0778,5.537,20.27,1111122 
DISL,ioos:station:DISL:DISL:1,2012-01-03T22:30:00Z,30.2513,-88.0778,5.609,21.86,1111122 
DISL,ioos:station:DISL:DISL:1,2012-01-03T23:00:00Z,30.2513,-88.0778,5.669,21.01,1111122 
DISL,ioos:station:DISL:DISL:1,2012-01-03T23:30:00Z,30.2513,-88.0778,5.68,21.74,1111122 
DISL,ioos:station:DISL:DISL:1,2012-01-04T00:00:00Z,30.2513,-88.0778,5.741,25.92,1111122 
DISL,ioos:station:DISL:DISL:1,2012-01-04T00:30:00Z,30.2513,-88.0778,5.758,25.2,1111122 
DISL,ioos:station:DISL:DISL:1,2012-01-04T01:00:00Z,30.2513,-88.0778,5.785,19.36,1111122 
DISL,ioos:station:DISL:DISL:1,2012-01-04T01:30:00Z,30.2513,-88.0778,5.778,19.3,1111122 
DISL,ioos:station:DISL:DISL:1,2012-01-04T02:00:00Z,30.2513,-88.0778,5.762,18.93,1111122 
DISL,ioos:station:DISL:DISL:1,2012-01-04T02:30:00Z,30.2513,-88.0778,5.712,18.97,1111122 
DISL,ioos:station:DISL:DISL:1,2012-01-04T03:00:00Z,30.2513,-88.0778,5.585,19.17,1111122 
DISL,ioos:station:DISL:DISL:1,2012-01-04T03:30:00Z,30.2513,-88.0778,5.526,19.45,1111122 
DISL,ioos:station:DISL:DISL:1,2012-01-04T04:00:00Z,30.2513,-88.0778,5.507,19.48,1111122 
DISL,ioos:station:DISL:DISL:1,2012-01-04T04:30:00Z,30.2513,-88.0778,5.428,19.74,1111122 
DISL,ioos:station:DISL:DISL:1,2012-01-04T05:00:00Z,30.2513,-88.0778,5.406,19.64,1111122 
DISL,ioos:station:DISL:DISL:1,2012-01-04T05:30:00Z,30.2513,-88.0778,5.334,16.09,1111122 
DISL,ioos:station:DISL:DISL:1,2012-01-04T06:00:00Z,30.2513,-88.0778,5.305,14.82,1111122 
DISL,ioos:station:DISL:DISL:1,2012-01-04T06:30:00Z,30.2513,-88.0778,5.246,14.71,1111122 
DISL,ioos:station:DISL:DISL:1,2012-01-04T07:00:00Z,30.2513,-88.0778,5.169,14.71,1111122 
DISL,ioos:station:DISL:DISL:1,2012-01-04T07:30:00Z,30.2513,-88.0778,5.122,13.89,1111122 
DISL,ioos:station:DISL:DISL:1,2012-01-04T08:00:00Z,30.2513,-88.0778,5.093,12.45,1111122 
DISL,ioos:station:DISL:DISL:1,2012-01-04T08:30:00Z,30.2513,-88.0778,4.999,12.06,1111122 
DISL,ioos:station:DISL:DISL:1,2012-01-04T09:00:00Z,30.2513,-88.0778,4.971,12.1,1111122 
DISL,ioos:station:DISL:DISL:1,2012-01-04T09:30:00Z,30.2513,-88.0778,4.906,11.99,1111122 
DISL,ioos:station:DISL:DISL:1,2012-01-04T10:00:00Z,30.2513,-88.0778,4.859,11.8,1111122 
DISL,ioos:station:DISL:DISL:1,2012-01-04T10:30:00Z,30.2513,-88.0778,4.838,11.76,1111122 
DISL,ioos:station:DISL:DISL:1,2012-01-04T11:00:00Z,30.2513,-88.0778,4.813,11.84,1111122 
DISL,ioos:station:DISL:DISL:1,2012-01-04T11:30:00Z,30.2513,-88.0778,4.814,11.99,1111122 
DISL,ioos:station:DISL:DISL:1,2012-01-04T12:00:00Z,30.2513,-88.0778,4.829,11.97,1111122 
DISL,ioos:station:DISL:DISL:1,2012-01-04T12:30:00Z,30.2513,-88.0778,4.867,12.07,1111122 
DISL,ioos:station:DISL:DISL:1,2012-01-04T13:00:00Z,30.2513,-88.0778,4.914,12.27,1111122 
DISL,ioos:station:DISL:DISL:1,2012-01-04T13:30:00Z,30.2513,-88.0778,4.93,12.31,1111122 
DISL,ioos:station:DISL:DISL:1,2012-01-04T14:00:00Z,30.2513,-88.0778,4.976,12.29,1111122 
DISL,ioos:station:DISL:DISL:1,2012-01-04T14:30:00Z,30.2513,-88.0778,5.02,13.63,1111122 
DISL,ioos:station:DISL:DISL:1,2012-01-04T15:00:00Z,30.2513,-88.0778,5.065,15.0,1111122 
DISL,ioos:station:DISL:DISL:1,2012-01-04T15:30:00Z,30.2513,-88.0778,5.098,15.49,1111122 
DISL,ioos:station:DISL:DISL:1,2012-01-04T16:00:00Z,30.2513,-88.0778,5.157,15.44,1111122 
DISL,ioos:station:DISL:DISL:1,2012-01-04T16:30:00Z,30.2513,-88.0778,5.199,15.57,1111122 
DISL,ioos:station:DISL:DISL:1,2012-01-04T17:00:00Z,30.2513,-88.0778,5.243,18.6,1111122 
DISL,ioos:station:DISL:DISL:1,2012-01-04T17:30:00Z,30.2513,-88.0778,5.313,21.16,1111122 
DISL,ioos:station:DISL:DISL:1,2012-01-04T18:00:00Z,30.2513,-88.0778,5.429,22.76,1111122 
DISL,ioos:station:DISL:DISL:1,2012-01-04T18:30:00Z,30.2513,-88.0778,5.52,23.42,1111122 
DISL,ioos:station:DISL:DISL:1,2012-01-04T19:00:00Z,30.2513,-88.0778,5.615,25.71,1111122 
DISL,ioos:station:DISL:DISL:1,2012-01-04T19:30:00Z,30.2513,-88.0778,5.7,27.93,1111122 
DISL,ioos:station:DISL:DISL:1,2012-01-04T20:00:00Z,30.2513,-88.0778,5.779,28.8,1111122 
DISL,ioos:station:DISL:DISL:1,2012-01-04T20:30:00Z,30.2513,-88.0778,5.897,28.42,1111122 
DISL,ioos:station:DISL:DISL:1,2012-01-04T21:00:00Z,30.2513,-88.0778,6.011,29.41,1111122 
DISL,ioos:station:DISL:DISL:1,2012-01-04T21:30:00Z,30.2513,-88.0778,6.045,29.13,1111122 
DISL,ioos:station:DISL:DISL:1,2012-01-04T22:00:00Z,30.2513,-88.0778,6.168,27.39,1111122 
DISL,ioos:station:DISL:DISL:1,2012-01-04T22:30:00Z,30.2513,-88.0778,6.183,23.74,1111122 
DISL,ioos:station:DISL:DISL:1,2012-01-04T23:00:00Z,30.2513,-88.0778,6.403,22.4,1111122 
DISL,ioos:station:DISL:DISL:1,2012-01-04T23:30:00Z,30.2513,-88.0778,6.389,20.99,1111122 
DISL,ioos:station:DISL:DISL:1,2012-01-05T00:00:00Z,30.2513,-88.0778,6.507,19.8,1111122 
DISL,ioos:station:DISL:DISL:1,2012-01-05T00:30:00Z,30.2513,-88.0778,6.498,20.82,1111122 
DISL,ioos:station:DISL:DISL:1,2012-01-05T01:00:00Z,30.2513,-88.0778,6.615,19.8,1111122 
DISL,ioos:station:DISL:DISL:1,2012-01-05T01:30:00Z,30.2513,-88.0778,6.512,17.19,1111122 
DISL,ioos:station:DISL:DISL:1,2012-01-05T02:00:00Z,30.2513,-88.0778,6.512,17.04,1111122 
DISL,ioos:station:DISL:DISL:1,2012-01-05T02:30:00Z,30.2513,-88.0778,6.511,17.13,1111122 
DISL,ioos:station:DISL:DISL:1,2012-01-05T03:00:00Z,30.2513,-88.0778,6.383,17.31,1111122 
DISL,ioos:station:DISL:DISL:1,2012-01-05T03:30:00Z,30.2513,-88.0778,6.328,17.23,1111122 
DISL,ioos:station:DISL:DISL:1,2012-01-05T04:00:00Z,30.2513,-88.0778,6.215,17.24,1111122 
DISL,ioos:station:DISL:DISL:1,2012-01-05T04:30:00Z,30.2513,-88.0778,6.119,17.24,1111122 
DISL,ioos:station:DISL:DISL:1,2012-01-05T05:00:00Z,30.2513,-88.0778,6.02,17.2,1111122 
DISL,ioos:station:DISL:DISL:1,2012-01-05T05:30:00Z,30.2513,-88.0778,5.932,17.22,1111122 
DISL,ioos:station:DISL:DISL:1,2012-01-05T06:00:00Z,30.2513,-88.0778,5.851,17.29,1111122 
DISL,ioos:station:DISL:DISL:1,2012-01-05T06:30:00Z,30.2513,-88.0778,5.754,17.37,1111122 
DISL,ioos:station:DISL:DISL:1,2012-01-05T07:00:00Z,30.2513,-88.0778,5.684,18.97,1111122 
DISL,ioos:station:DISL:DISL:1,2012-01-05T07:30:00Z,30.2513,-88.0778,5.555,19.5,1111122 
DISL,ioos:station:DISL:DISL:1,2012-01-05T08:00:00Z,30.2513,-88.0778,5.515,19.65,1111122 
DISL,ioos:station:DISL:DISL:1,2012-01-05T08:30:00Z,30.2513,-88.0778,5.421,17.26,1111122 
DISL,ioos:station:DISL:DISL:1,2012-01-05T09:00:00Z,30.2513,-88.0778,5.327,15.69,1111122 
DISL,ioos:station:DISL:DISL:1,2012-01-05T09:30:00Z,30.2513,-88.0778,5.264,14.67,1111122 
DISL,ioos:station:DISL:DISL:1,2012-01-05T10:00:00Z,30.2513,-88.0778,5.168,14.43,1111122 
DISL,ioos:station:DISL:DISL:1,2012-01-05T10:30:00Z,30.2513,-88.0778,5.088,14.21,1111122 
DISL,ioos:station:DISL:DISL:1,2012-01-05T11:00:00Z,30.2513,-88.0778,5.036,14.09,1111122 
DISL,ioos:station:DISL:DISL:1,2012-01-05T11:30:00Z,30.2513,-88.0778,4.944,14.12,1111122 
DISL,ioos:station:DISL:DISL:1,2012-01-05T12:00:00Z,30.2513,-88.0778,4.922,14.16,1111122 
DISL,ioos:station:DISL:DISL:1,2012-01-05T12:30:00Z,30.2513,-88.0778,4.897,14.12,1111122 
DISL,ioos:station:DISL:DISL:1,2012-01-05T13:00:00Z,30.2513,-88.0778,4.934,13.79,1111122 
DISL,ioos:station:DISL:DISL:1,2012-01-05T13:30:00Z,30.2513,-88.0778,4.937,13.6,1111122 
DISL,ioos:station:DISL:DISL:1,2012-01-05T14:00:00Z,30.2513,-88.0778,4.965,13.42,1111122 
DISL,ioos:station:DISL:DISL:1,2012-01-05T14:30:00Z,30.2513,-88.0778,4.996,13.43,1111122 
DISL,ioos:station:DISL:DISL:1,2012-01-05T15:00:00Z,30.2513,-88.0778,5.019,13.53,1111122 
DISL,ioos:station:DISL:DISL:1,2012-01-05T15:30:00Z,30.2513,-88.0778,5.053,13.96,1111122 
DISL,ioos:station:DISL:DISL:1,2012-01-05T16:00:00Z,30.2513,-88.0778,5.062,14.99,1111122 
DISL,ioos:station:DISL:DISL:1,2012-01-05T16:30:00Z,30.2513,-88.0778,5.153,14.87,1111122 
DISL,ioos:station:DISL:DISL:1,2012-01-05T17:00:00Z,30.2513,-88.0778,5.215,14.36,1111122 
DISL,ioos:station:DISL:DISL:1,2012-01-05T17:30:00Z,30.2513,-88.0778,5.245,14.17,1111122 
DISL,ioos:station:DISL:DISL:1,2012-01-05T18:00:00Z,30.2513,-88.0778,5.394,14.16,1111122 
DISL,ioos:station:DISL:DISL:1,2012-01-05T18:30:00Z,30.2513,-88.0778,5.409,14.52,1111122 
DISL,ioos:station:DISL:DISL:1,2012-01-05T19:00:00Z,30.2513,-88.0778,5.534,14.86,1111122 
DISL,ioos:station:DISL:DISL:1,2012-01-05T19:30:00Z,30.2513,-88.0778,5.604,17.72,1111122 
DISL,ioos:station:DISL:DISL:1,2012-01-05T20:00:00Z,30.2513,-88.0778,5.722,17.61,1111122 
DISL,ioos:station:DISL:DISL:1,2012-01-05T20:30:00Z,30.2513,-88.0778,5.834,18.18,1111122 
DISL,ioos:station:DISL:DISL:1,2012-01-05T21:00:00Z,30.2513,-88.0778,5.928,18.38,1111122 
DISL,ioos:station:DISL:DISL:1,2012-01-05T21:30:00Z,30.2513,-88.0778,6.019,18.04,1111122 
DISL,ioos:station:DISL:DISL:1,2012-01-05T22:00:00Z,30.2513,-88.0778,6.105,16.97,1111122 
DISL,ioos:station:DISL:DISL:1,2012-01-05T22:30:00Z,30.2513,-88.0778,6.243,16.92,1111122 
DISL,ioos:station:DISL:DISL:1,2012-01-05T23:00:00Z,30.2513,-88.0778,6.319,16.69,1111122 
DISL,ioos:station:DISL:DISL:1,2012-01-05T23:30:00Z,30.2513,-88.0778,6.312,17.05,1111122 
DISL,ioos:station:DISL:DISL:1,2012-01-06T00:00:00Z,30.2513,-88.0778,6.484,19.18,1111122 
DISL,ioos:station:DISL:DISL:1,2012-01-06T00:30:00Z,30.2513,-88.0778,6.526,21.13,1111122 
DISL,ioos:station:DISL:DISL:1,2012-01-06T01:00:00Z,30.2513,-88.0778,6.585,21.88,1111122 
DISL,ioos:station:DISL:DISL:1,2012-01-06T01:30:00Z,30.2513,-88.0778,6.623,23.22,1111122 
DISL,ioos:station:DISL:DISL:1,2012-01-06T02:00:00Z,30.2513,-88.0778,6.638,18.3,1111122 
DISL,ioos:station:DISL:DISL:1,2012-01-06T02:30:00Z,30.2513,-88.0778,6.64,16.66,1111122 
DISL,ioos:station:DISL:DISL:1,2012-01-06T03:00:00Z,30.2513,-88.0778,6.609,16.14,1111122 
DISL,ioos:station:DISL:DISL:1,2012-01-06T03:30:00Z,30.2513,-88.0778,6.529,16.01,1111122 
DISL,ioos:station:DISL:DISL:1,2012-01-06T04:00:00Z,30.2513,-88.0778,6.441,16.02,1111122 
DISL,ioos:station:DISL:DISL:1,2012-01-06T04:30:00Z,30.2513,-88.0778,6.348,15.93,1111122 
DISL,ioos:station:DISL:DISL:1,2012-01-06T05:00:00Z,30.2513,-88.0778,6.266,15.86,1111122 
DISL,ioos:station:DISL:DISL:1,2012-01-06T05:30:00Z,30.2513,-88.0778,6.197,15.77,1111122 
DISL,ioos:station:DISL:DISL:1,2012-01-06T06:00:00Z,30.2513,-88.0778,6.076,15.8,1111122 
DISL,ioos:station:DISL:DISL:1,2012-01-06T06:30:00Z,30.2513,-88.0778,5.994,16.58,1111122 
DISL,ioos:station:DISL:DISL:1,2012-01-06T07:00:00Z,30.2513,-88.0778,5.932,19.03,1111122 
DISL,ioos:station:DISL:DISL:1,2012-01-06T07:30:00Z,30.2513,-88.0778,5.827,19.98,1111122 
DISL,ioos:station:DISL:DISL:1,2012-01-06T08:00:00Z,30.2513,-88.0778,5.757,17.31,1111122 
DISL,ioos:station:DISL:DISL:1,2012-01-06T08:30:00Z,30.2513,-88.0778,5.658,15.98,1111122 
DISL,ioos:station:DISL:DISL:1,2012-01-06T09:00:00Z,30.2513,-88.0778,5.565,15.19,1111122 
DISL,ioos:station:DISL:DISL:1,2012-01-06T09:30:00Z,30.2513,-88.0778,5.484,13.87,1111122 
DISL,ioos:station:DISL:DISL:1,2012-01-06T10:00:00Z,30.2513,-88.0778,5.389,12.84,1111122 
DISL,ioos:station:DISL:DISL:1,2012-01-06T10:30:00Z,30.2513,-88.0778,5.292,12.37,1111122 
DISL,ioos:station:DISL:DISL:1,2012-01-06T11:00:00Z,30.2513,-88.0778,5.237,12.29,1111122 
DISL,ioos:station:DISL:DISL:1,2012-01-06T11:30:00Z,30.2513,-88.0778,5.168,12.27,1111122 
DISL,ioos:station:DISL:DISL:1,2012-01-06T12:00:00Z,30.2513,-88.0778,5.157,11.8,1111122 
DISL,ioos:station:DISL:DISL:1,2012-01-06T12:30:00Z,30.2513,-88.0778,5.116,11.75,1111122 
DISL,ioos:station:DISL:DISL:1,2012-01-06T13:00:00Z,30.2513,-88.0778,5.122,11.38,1111122 
DISL,ioos:station:DISL:DISL:1,2012-01-06T13:30:00Z,30.2513,-88.0778,5.128,11.22,1111122 
DISL,ioos:station:DISL:DISL:1,2012-01-06T14:00:00Z,30.2513,-88.0778,5.147,10.89,1111122 